Content
SEND FEEDBACK

Daily
Averages
Monthly
Summary
United States of America

PONTOTOC, TEXAS


Home > North America > United States > Texas
Elevation: 1560 feet     Latitude: 30 55N     Longitude: 098 59W

WEATHER
 
SELECT A DAY
Number of Records: 246,336;   Date Range: 6/16/04 - 11/24/14
 
SHARE

PRINT THIS DATA

[ ← Previous Day ]
WEATHER ALMANAC - FEBRUARY 13, 2013
[ Next Day → ]
[ °C ]   °F
Weather ElementAverageHighLow
Temperature45.2 °F62.6 °F (3:55 pm)32 °F (6:55 am)
Dewpoint30.4 °F33.8 °F (8:55 am)23 °F (4:15 pm)
Humidity61.8 %93 % (4:55 am)23 % (4:15 pm)
Barometer30.14 in30.22 in (9:15 am)30.06 in (4:35 pm)
Wind Speed3.2 mph10.4 mph (12:35 am)
Weather ElementAverage
Visibility10 mi
Wind DirectionSSE (145 °)

Weather ElementTotal
Precipitation---
Heating Degree Days17.7 (Base 65)
Averaged from 66 records on February 13, 2013
WEATHER CONDITIONS BREAKOUT
WIND DIRECTION BREAKOUT
WEATHER BY HOUR - FEBRUARY 13, 2013
[ °C ]   °F
Local TimeTemperatureDewpointHumidityBarometerVisibilityWind DirectionWind SpeedGust SpeedPrecipitationEventsConditions
12:35 AM41.0 °F32.0 °F70 %30.12 in10.0 miNNW (340°)10.4 mphClear
12:55 AM41.0 °F32.0 °F70 %30.13 in10.0 miNNW (340°)9.2 mphClear
1:15 AM39.2 °F32.0 °F75 %30.14 in10.0 miNNW (330°)6.9 mphClear
1:35 AM39.2 °F32.0 °F75 %30.14 in10.0 miNW (310°)4.6 mphClear
1:55 AM39.2 °F32.0 °F75 %30.14 in10.0 miWNW (300°)5.8 mphClear
2:15 AM39.2 °F32.0 °F75 %30.14 in10.0 miNW (320°)6.9 mphClear
2:35 AM39.2 °F32.0 °F75 %30.16 in10.0 miWest (280°)3.5 mphClear
2:55 AM37.4 °F32.0 °F81 %30.17 in10.0 miCalmClear
3:15 AM37.4 °F32.0 °F81 %30.17 in10.0 miCalmClear
3:35 AM37.4 °F32.0 °F81 %30.16 in10.0 miWest (280°)4.6 mphClear
3:55 AM37.4 °F32.0 °F81 %30.17 in10.0 miWNW (300°)6.9 mphClear
4:15 AM35.6 °F32.0 °F87 %30.17 in10.0 miWNW (290°)5.8 mphClear
4:35 AM35.6 °F32.0 °F87 %30.16 in10.0 miCalmClear
4:55 AM33.8 °F32.0 °F93 %30.16 in10.0 miCalmClear
5:15 AM33.8 °F32.0 °F93 %30.16 in10.0 miCalmClear
5:55 AM33.8 °F32.0 °F93 %30.17 in10.0 miWest (260°)4.6 mphClear
6:15 AM33.8 °F32.0 °F93 %30.17 in10.0 miCalmClear
6:55 AM32.0 °F30.2 °F93 %30.18 in10.0 miCalmClear
7:15 AM32.0 °F30.2 °F93 %30.19 in10.0 miCalmClear
7:35 AM33.8 °F32.0 °F93 %30.20 in10.0 miCalmClear
7:55 AM33.8 °F32.0 °F93 %30.20 in10.0 miWest (260°)5.8 mphClear
8:15 AM35.6 °F32.0 °F87 %30.20 in10.0 miWest (260°)5.8 mphClear
8:35 AM37.4 °F32.0 °F81 %30.21 in10.0 miWest (280°)5.8 mphClear
8:55 AM39.2 °F33.8 °F81 %30.21 in10.0 miWNW (290°)5.8 mphClear
9:15 AM41.0 °F32.0 °F70 %30.22 in10.0 miWest (270°)5.8 mphClear
9:35 AM42.8 °F33.8 °F70 %30.22 in10.0 miNW (320°)5.8 mphClear
9:55 AM44.6 °F33.8 °F66 %30.21 in10.0 miWNW (300°)5.8 mphClear
10:15 AM44.6 °F33.8 °F66 %30.21 in10.0 miNNW (340°)5.8 mphClear
10:35 AM46.4 °F33.8 °F62 %30.21 in10.0 miWNW (300°)3.5 mphClear
10:55 AM48.2 °F33.8 °F58 %30.20 in10.0 miNNW (340°)4.6 mphClear
11:15 AM50.0 °F33.8 °F54 %30.19 in10.0 miNNW (330°)4.6 mphClear
11:35 AM51.8 °F32.0 °F47 %30.19 in10.0 miCalmClear
11:55 AM53.6 °F32.0 °F44 %30.18 in10.0 miNorth (10°)6.9 mphClear
12:15 PM55.4 °F32.0 °F41 %30.17 in10.0 miNE (50°)3.5 mphClear
12:35 PM55.4 °F32.0 °F41 %30.16 in10.0 miWSW (250°)6.9 mphClear
12:55 PM57.2 °F32.0 °F38 %30.15 in10.0 miNW (310°)5.8 mphClear
1:15 PM57.2 °F30.2 °F36 %30.13 in10.0 miNorth (350°)9.2 mphClear
1:35 PM57.2 °F30.2 °F36 %30.12 in10.0 miNW (310°)9.2 mphClear
1:55 PM60.8 °F30.2 °F31 %30.11 in10.0 miSE (130°)4.6 mphClear
2:15 PM60.8 °F28.4 °F29 %30.10 in10.0 miNNE (30°)5.8 mphClear
2:35 PM60.8 °F28.4 °F29 %30.09 in10.0 miCalmClear
2:55 PM60.8 °F28.4 °F29 %30.08 in10.0 miNNE (30°)4.6 mphClear
3:15 PM60.8 °F28.4 °F29 %30.08 in10.0 miNorth (350°)6.9 mphClear
3:55 PM62.6 °F26.6 °F26 %30.07 in10.0 miCalmClear
4:15 PM60.8 °F23.0 °F23 %30.07 in10.0 miNorth (360°)5.8 mphClear
4:35 PM60.8 °F23.0 °F23 %30.06 in10.0 miNorth (360°)5.8 mphClear
4:55 PM60.8 °F23.0 °F23 %30.06 in10.0 miNE (50°)5.8 mphClear
5:15 PM60.8 °F23.0 °F23 %30.06 in10.0 miNNW (340°)3.5 mphClear
5:55 PM59.0 °F23.0 °F25 %30.06 in10.0 miCalmClear
6:15 PM57.2 °F26.6 °F31 %30.06 in10.0 miCalmClear
6:35 PM55.4 °F23.0 °F29 %30.07 in10.0 miCalmClear
6:55 PM51.8 °F26.6 °F38 %30.07 in10.0 miCalmClear
7:15 PM50.0 °F28.4 °F43 %30.07 in10.0 miCalmClear
7:55 PM46.4 °F30.2 °F53 %30.09 in10.0 miCalmClear
8:15 PM46.4 °F30.2 °F53 %30.09 in10.0 miCalmClear
8:35 PM44.6 °F30.2 °F57 %30.09 in10.0 miCalmClear
8:55 PM44.6 °F28.4 °F53 %30.10 in10.0 miCalmClear
9:15 PM41.0 °F32.0 °F70 %30.10 in10.0 miCalmClear
9:35 PM39.2 °F30.2 °F70 %30.10 in10.0 miCalmClear
9:55 PM37.4 °F30.2 °F75 %30.11 in10.0 miCalmClear
10:15 PM37.4 °F30.2 °F75 %30.11 in10.0 miCalmClear
10:35 PM37.4 °F32.0 °F81 %30.11 in10.0 miCalmClear
10:55 PM35.6 °F30.2 °F81 %30.11 in10.0 miCalmClear
11:15 PM35.6 °F30.2 °F81 %30.11 in10.0 miCalmClear
11:35 PM35.6 °F30.2 °F81 %30.12 in10.0 miCalmClear
11:55 PM35.6 °F30.2 °F81 %30.12 in10.0 miCalmClear
Hourly data recorded from KAQO, located miles away from Pontotoc, Texas







STORIES FROM OUR PARTNERS